• In Hungary
  • List of Countries
  • For 7 days
  • Water Temperature
  • Satellite Maps
  • Weather Map
  • News
  • Weather Widgets
  • user-avatar
    Login

    Hourly Weather Prosno

    Today, 21 October, Saturday

    Time Temperature Precipitation Wind Pressure Humidity
    00:00 +11°C° 0 mm 3 mps 750 mmHg 85%
    01:00 +11°C° 0 mm 3 mps 750 mmHg 84%
    02:00 +12°C° 0 mm 2 mps 750 mmHg 83%
    03:00 +12°C° 0 mm 2 mps 750 mmHg 82%
    04:00 +12°C° 0 mm 2 mps 749 mmHg 81%
    05:00 +12°C° 0.4 mm 2 mps 749 mmHg 83%
    06:00 +12°C° 0.4 mm 2 mps 749 mmHg 85%
    07:00 +12°C° 0.4 mm 2 mps 749 mmHg 87%
    08:00 +12°C° 0.3 mm 3 mps 750 mmHg 84%
    09:00 +12°C° 0.3 mm 3 mps 750 mmHg 82%
    10:00 +13°C° 0.3 mm 3 mps 750 mmHg 79%
    11:00 +14°C° 0.1 mm 3 mps 750 mmHg 75%
    12:00 +15°C° 0.1 mm 4 mps 749 mmHg 71%
    13:00 +15°C° 0.1 mm 4 mps 749 mmHg 67%
    14:00 +16°C° 0.1 mm 3 mps 749 mmHg 69%
    15:00 +14°C° 0.1 mm 3 mps 749 mmHg 71%
    16:00 +15°C° 0.1 mm 2 mps 749 mmHg 73%
    17:00 +14°C° 0 mm 2 mps 750 mmHg 77%
    18:00 +13°C° 0 mm 2 mps 750 mmHg 81%
    19:00 +12°C° 0 mm 1 mps 750 mmHg 85%
    20:00 +12°C° 0 mm 1 mps 750 mmHg 87%
    21:00 +11°C° 0 mm 1 mps 751 mmHg 89%
    22:00 +11°C° 0 mm 1 mps 751 mmHg 90%
    23:00 +11°C° 0 mm 1 mps 751 mmHg 91%

    Tomorrow, 22 October, Sunday

    Time Temperature Precipitation Wind Pressure Humidity
    00:00 +10°C° 0 mm 1 mps 751 mmHg 92%
    01:00 +10°C° 0 mm 1 mps 751 mmHg 93%
    02:00 +9°C° 0 mm 2 mps 751 mmHg 93%
    03:00 +9°C° 0 mm 2 mps 750 mmHg 93%
    04:00 +9°C° 0 mm 2 mps 750 mmHg 93%
    05:00 +9°C° 0 mm 2 mps 750 mmHg 93%
    06:00 +9°C° 0 mm 3 mps 750 mmHg 93%
    07:00 +9°C° 0 mm 3 mps 750 mmHg 93%
    08:00 +10°C° 0 mm 3 mps 750 mmHg 89%
    09:00 +11°C° 0 mm 3 mps 750 mmHg 85%
    10:00 +11°C° 0 mm 3 mps 750 mmHg 81%
    11:00 +11°C° 0.4 mm 3 mps 750 mmHg 82%
    12:00 +11°C° 0.4 mm 3 mps 750 mmHg 82%
    13:00 +11°C° 0.4 mm 3 mps 750 mmHg 83%
    14:00 +12°C° 0.7 mm 2 mps 749 mmHg 86%
    15:00 +10°C° 0.7 mm 2 mps 749 mmHg 88%
    16:00 +10°C° 0.7 mm 2 mps 749 mmHg 91%
    17:00 +10°C° 0.1 mm 2 mps 749 mmHg 92%
    18:00 +10°C° 0.1 mm 2 mps 749 mmHg 92%
    19:00 +10°C° 0.1 mm 2 mps 750 mmHg 93%
    20:00 +9°C° 0 mm 2 mps 749 mmHg 93%
    21:00 +9°C° 0 mm 2 mps 749 mmHg 93%
    22:00 +10°C° 0 mm 1 mps 749 mmHg 93%
    23:00 +10°C° 0 mm 1 mps 749 mmHg 93%

    Day after tomorrow, 23 October, Monday

    Time Temperature Precipitation Wind Pressure Humidity
    00:00 +9°C° 0 mm 2 mps 749 mmHg 93%
    01:00 +9°C° 0 mm 2 mps 749 mmHg 93%
    02:00 +9°C° 0.1 mm 2 mps 749 mmHg 92%
    03:00 +9°C° 0.1 mm 2 mps 749 mmHg 92%
    04:00 +8°C° 0.1 mm 2 mps 749 mmHg 92%
    05:00 +8°C° 0.1 mm 2 mps 749 mmHg 92%
    06:00 +8°C° 0.1 mm 2 mps 749 mmHg 92%
    07:00 +8°C° 0.1 mm 2 mps 749 mmHg 92%
    08:00 +8°C° 0.3 mm 2 mps 749 mmHg 90%
    09:00 +9°C° 0.3 mm 2 mps 749 mmHg 89%
    10:00 +9°C° 0.3 mm 2 mps 749 mmHg 88%
    11:00 +9°C° 0.3 mm 2 mps 750 mmHg 86%
    12:00 +10°C° 0.3 mm 2 mps 750 mmHg 85%
    13:00 +10°C° 0.3 mm 3 mps 750 mmHg 84%
    14:00 +10°C° 0.3 mm 2 mps 750 mmHg 85%
    15:00 +10°C° 0.3 mm 2 mps 750 mmHg 87%
    16:00 +10°C° 0.3 mm 2 mps 750 mmHg 88%
    17:00 +9°C° 0.2 mm 2 mps 750 mmHg 90%
    18:00 +9°C° 0.2 mm 2 mps 751 mmHg 91%
    19:00 +9°C° 0.2 mm 2 mps 751 mmHg 92%
    20:00 +8°C° 0.2 mm 2 mps 752 mmHg 92%
    21:00 +8°C° 0.2 mm 2 mps 752 mmHg 93%
    22:00 +8°C° 0.2 mm 2 mps 752 mmHg 93%
    23:00 +8°C° 0.2 mm 2 mps 753 mmHg 93%

    24 October, Tuesday

    Time Temperature Precipitation Wind Pressure Humidity
    00:00 +8°C° 0.2 mm 2 mps 753 mmHg 93%
    01:00 +8°C° 0.2 mm 2 mps 753 mmHg 93%
    02:00 +8°C° 0.1 mm 2 mps 754 mmHg 93%
    03:00 +7°C° 0.1 mm 2 mps 754 mmHg 93%
    04:00 +7°C° 0.1 mm 2 mps 754 mmHg 93%
    05:00 +7°C° 0.1 mm 2 mps 755 mmHg 92%
    06:00 +7°C° 0.1 mm 2 mps 755 mmHg 91%
    07:00 +7°C° 0.1 mm 2 mps 756 mmHg 90%
    08:00 +8°C° 0 mm 2 mps 756 mmHg 87%
    09:00 +8°C° 0 mm 2 mps 757 mmHg 84%
    10:00 +8°C° 0 mm 2 mps 757 mmHg 81%
    11:00 +9°C° 0 mm 2 mps 757 mmHg 79%
    12:00 +9°C° 0 mm 2 mps 757 mmHg 77%
    13:00 +9°C° 0 mm 2 mps 757 mmHg 75%
    14:00 +9°C° 0 mm 2 mps 757 mmHg 75%
    15:00 +9°C° 0 mm 2 mps 758 mmHg 76%
    16:00 +8°C° 0 mm 2 mps 758 mmHg 77%
    17:00 +8°C° 0 mm 2 mps 758 mmHg 79%
    18:00 +7°C° 0 mm 2 mps 758 mmHg 81%
    19:00 +6°C° 0 mm 2 mps 759 mmHg 83%
    20:00 +6°C° 0 mm 2 mps 759 mmHg 83%
    21:00 +6°C° 0 mm 2 mps 759 mmHg 83%
    22:00 +4°C° 0 mm 3 mps 759 mmHg 83%
    23:00 +4°C° 0 mm 3 mps 759 mmHg 83%

    25 October, Wednesday

    Time Temperature Precipitation Wind Pressure Humidity
    00:00 +4°C° 0 mm 3 mps 760 mmHg 82%
    01:00 +3°C° 0 mm 3 mps 760 mmHg 82%
    02:00 +3°C° 0 mm 3 mps 760 mmHg 82%
    03:00 +3°C° 0 mm 3 mps 760 mmHg 81%
    04:00 +3°C° 0 mm 3 mps 760 mmHg 81%
    05:00 +2°C° 0 mm 3 mps 760 mmHg 81%
    06:00 +2°C° 0 mm 3 mps 760 mmHg 81%
    07:00 +2°C° 0 mm 3 mps 760 mmHg 80%
    08:00 +3°C° 0 mm 3 mps 760 mmHg 74%
    09:00 +4°C° 0 mm 4 mps 761 mmHg 68%
    10:00 +6°C° 0 mm 4 mps 761 mmHg 62%
    11:00 +6°C° 0 mm 4 mps 761 mmHg 59%
    12:00 +7°C° 0 mm 4 mps 760 mmHg 55%
    13:00 +8°C° 0 mm 4 mps 760 mmHg 52%
    14:00 +7°C° 0 mm 4 mps 760 mmHg 53%
    15:00 +7°C° 0 mm 4 mps 760 mmHg 55%
    16:00 +6°C° 0 mm 4 mps 760 mmHg 56%
    17:00 +6°C° 0 mm 4 mps 760 mmHg 58%
    18:00 +5°C° 0 mm 4 mps 760 mmHg 59%
    19:00 +5°C° 0 mm 4 mps 760 mmHg 61%
    20:00 +5°C° 0 mm 4 mps 760 mmHg 61%
    21:00 +3°C° 0 mm 5 mps 760 mmHg 61%
    22:00 +3°C° 0 mm 5 mps 760 mmHg 61%
    23:00 +3°C° 0 mm 5 mps 760 mmHg 61%

    26 October, Thursday

    Time Temperature Precipitation Wind Pressure Humidity
    00:00 +3°C° 0 mm 5 mps 760 mmHg 61%
    01:00 +3°C° 0 mm 5 mps 760 mmHg 61%
    02:00 +4°C° 0 mm 4 mps 759 mmHg 62%
    03:00 +3°C° 0 mm 4 mps 759 mmHg 62%
    04:00 +3°C° 0 mm 4 mps 759 mmHg 63%
    05:00 +3°C° 0 mm 4 mps 759 mmHg 63%
    06:00 +4°C° 0 mm 4 mps 759 mmHg 63%
    07:00 +4°C° 0 mm 4 mps 759 mmHg 63%
    08:00 +4°C° 0.3 mm 4 mps 759 mmHg 65%
    09:00 +4°C° 0.3 mm 4 mps 758 mmHg 67%
    10:00 +4°C° 0.3 mm 4 mps 758 mmHg 70%
    11:00 +4°C° 0.4 mm 4 mps 758 mmHg 72%
    12:00 +4°C° 0.4 mm 3 mps 758 mmHg 74%
    13:00 +4°C° 0.4 mm 3 mps 758 mmHg 76%
    14:00 +6°C° 0 mm 2 mps 758 mmHg 78%
    15:00 +7°C° 0 mm 1 mps 757 mmHg 80%
    16:00 +6°C° 0 mm 0 mps 757 mmHg 82%
    17:00 +7°C° 0 mm 1 mps 758 mmHg 84%
    18:00 +7°C° 0 mm 1 mps 758 mmHg 86%
    19:00 +6°C° 0 mm 1 mps 758 mmHg 89%
    20:00 +6°C° 0 mm 1 mps 758 mmHg 89%
    21:00 +6°C° 0 mm 1 mps 758 mmHg 90%
    22:00 +5°C° 0 mm 0 mps 758 mmHg 91%
    23:00 +6°C° 0 mm 1 mps 758 mmHg 92%
    Show more